WICK current weather conditions

sailwx.info

Wind from 120 at 13 knots

Air temperature 8.0° C
Visibility: greater than 4.3 NM
Dewpoint 6.0° C

Last reported at 2017-May-01 04:50 UTC.
Time now 2017-May-01 06:21 UTC

Location: N 58°27' W 003°05'.
View on Google Maps.

See reports from other nearby stations

  
Tides and Currents Weather Stations Pressure Air Temp Water Temp Dewpoint Dewpoint Depression Visibility Wind Speed Wind Dir Waves Ship Positions
date/time (UTC)wind fromknots sea level pressurealtimeterstation pressurevisibilityair tempwater tempwave heightnotes
2017-May-01 05:50 120 14 4.3 8.0
2017-May-01 05:20 120 13 4.9 8.0
2017-May-01 04:50 120 13 4.3 8.0
2017-May-01 04:20 110 14 4.3 8.0
2017-May-01 03:50 120 13 4.3 7.0
2017-May-01 03:20 120 14 4.3 8.0
2017-May-01 02:50 120 15 4.3 8.0
2017-May-01 02:20 120 15 4.9 8.0
2017-May-01 01:50 120 17 4.9 8.0
2017-May-01 01:20 120 15 4.9 8.0
2017-May-01 00:50 120 18 5.4 8.0
2017-May-01 00:20 120 19 5.4 8.0
2017-Apr-30 23:50 120 20 5.4 8.0
2017-Apr-30 23:20 130 19 5.4 8.0
2017-Apr-30 22:50 120 19 5.4 8.0
2017-Apr-30 22:20 130 20 5.4 8.0
2017-Apr-30 21:50 130 20 5.4 8.0
2017-Apr-30 21:20 120 20 5.4 8.0
2017-Apr-30 20:50 120 20 5.4 8.0
2017-Apr-30 20:20 120 21 5.4 7.0
2017-Apr-30 19:50 120 21 5.4 8.0
2017-Apr-30 19:20 110 20 5.4 8.0
2017-Apr-30 18:50 110 20 5.4 8.0
2017-Apr-30 18:20 110 20 5.4 8.0
2017-Apr-30 17:50 120 20 5.4 8.0
2017-Apr-30 17:20 120 21 5.4 8.0
2017-Apr-30 16:50 130 22 5.4 8.0
2017-Apr-30 16:20 120 20 5.4 9.0
2017-Apr-30 15:50 120 20 5.4 9.0
2017-Apr-30 15:20 120 20 5.4 9.0
2017-Apr-30 14:50 110 20 5.410.0
2017-Apr-30 14:20 110 20 5.4 9.0
2017-Apr-30 13:50 120 20 5.4 9.0
2017-Apr-30 13:20 120 20 5.410.0
2017-Apr-30 12:50 120 19 5.4 9.0
2017-Apr-30 12:20 120 18 5.4 9.0
2017-Apr-30 11:50 130 19 5.410.0
2017-Apr-30 11:20 130 20 5.411.0
2017-Apr-30 10:50 130 20 5.410.0
2017-Apr-30 10:20 120 20 5.410.0
2017-Apr-30 09:50 130 20 4.9 9.0
2017-Apr-30 09:20 130 21 4.9 9.0
2017-Apr-30 08:50 130 20 4.9 8.0
2017-Apr-30 08:20 130 20 4.9 8.0
2017-Apr-30 07:50 130 18 4.3 8.0
2017-Apr-30 07:20 130 20 4.3 8.0
2017-Apr-30 06:50 130 20 4.3 8.0
2017-Apr-30 06:20 130 19 4.3 8.0
2017-Apr-30 05:50 120 18 3.8 8.0
2017-Apr-30 05:20 120 17 3.8 8.0
2017-Apr-30 04:50 130 19 3.2 8.0
2017-Apr-30 04:20 130 18 3.2 8.0
2017-Apr-30 03:50 130 19 3.2 8.0
2017-Apr-30 03:20 130 19 3.8 8.0
2017-Apr-30 02:50 130 14 3.8 8.0
2017-Apr-30 02:20 130 14 3.8 8.0
2017-Apr-30 01:50 130 15 4.3 8.0
2017-Apr-30 01:20 130 17 4.3 8.0
2017-Apr-30 00:50 130 15 5.4 8.0
2017-Apr-30 00:20 130 17 5.4 8.0
2017-Apr-29 23:50 130 17 4.9 8.0
2017-Apr-29 23:20 130 18 4.9 8.0
2017-Apr-29 22:50 130 17 4.3 8.0
2017-Apr-29 22:20 140 18 3.2 8.0
2017-Apr-29 21:50 130 20 3.8 8.0
2017-Apr-29 21:20 130 18 4.3 8.0
2017-Apr-29 20:50 140 18 4.9 8.0
2017-Apr-29 20:20 130 20 5.4 8.0
2017-Apr-29 19:50 140 21 5.4 8.0
2017-Apr-29 19:20 140 20 5.4 8.0
2017-Apr-29 18:50 140 20 5.4 8.0
2017-Apr-29 18:20 140 20 5.4 8.0
2017-Apr-29 17:50 140 19 5.4 9.0
2017-Apr-29 17:20 140 20 5.4 9.0
2017-Apr-29 16:50 130 19 5.4 9.0
2017-Apr-29 16:20 140 20 5.4 9.0
2017-Apr-29 15:50 130 18 5.410.0
2017-Apr-29 15:20 130 18 5.4 9.0
2017-Apr-29 14:50 130 20 5.4 9.0
2017-Apr-29 14:20 130 20 5.410.0
2017-Apr-29 13:50 130 18 5.4 9.0
2017-Apr-29 13:20 120 19 5.4 9.0
2017-Apr-29 12:50 130 20 5.410.0
2017-Apr-29 12:20 130 19 5.4 9.0
2017-Apr-29 11:50 10.0
2017-Apr-29 11:20 130 20 5.410.0
2017-Apr-29 10:50 130 20 5.410.0
2017-Apr-29 10:20 130 17 5.4 9.0
2017-Apr-29 09:50 130 15 5.4 9.0
2017-Apr-29 09:20 140 18 5.4 8.0
2017-Apr-29 08:50 140 17 5.4 8.0
2017-Apr-29 08:20 140 14 5.4 8.0
2017-Apr-29 07:50 140 14 5.4 8.0
2017-Apr-29 07:20 150 13 5.4 8.0
2017-Apr-29 06:50 150 12 5.4 8.0
2017-Apr-29 06:20 150 12 5.4 7.0